owner,sensor,date,latitude,longitude,air_pressure(mBar),qcFlag 
TABS,ioos:station:wmo:42043:1,2014-09-01T00:00:00Z,28.9818,-94.9186,1014.27,11111222 
TABS,ioos:station:wmo:42043:1,2014-09-01T00:30:00Z,28.9818,-94.9186,1014.15,11111222 
TABS,ioos:station:wmo:42043:1,2014-09-01T01:00:00Z,28.9818,-94.9186,1014.24,11111222 
TABS,ioos:station:wmo:42043:1,2014-09-01T01:30:00Z,28.9818,-94.9186,1014.2,11111222 
TABS,ioos:station:wmo:42043:1,2014-09-01T02:00:00Z,28.9818,-94.9186,1014.44,11111222 
TABS,ioos:station:wmo:42043:1,2014-09-01T02:30:00Z,28.9818,-94.9186,1014.3,11111222 
TABS,ioos:station:wmo:42043:1,2014-09-01T03:00:00Z,28.9818,-94.9186,1014.58,11111222 
TABS,ioos:station:wmo:42043:1,2014-09-01T03:30:00Z,28.9818,-94.9186,1014.48,11111222 
TABS,ioos:station:wmo:42043:1,2014-09-01T04:00:00Z,28.9818,-94.9186,1014.61,11111222 
TABS,ioos:station:wmo:42043:1,2014-09-01T04:30:00Z,28.9818,-94.9186,1014.13,11111222 
TABS,ioos:station:wmo:42043:1,2014-09-01T05:00:00Z,28.9818,-94.9186,1014.2,11111222 
TABS,ioos:station:wmo:42043:1,2014-09-01T05:30:00Z,28.9818,-94.9186,1014.13,11111222 
TABS,ioos:station:wmo:42043:1,2014-09-01T06:00:00Z,28.9818,-94.9186,1013.76,11111222 
TABS,ioos:station:wmo:42043:1,2014-09-01T06:30:00Z,28.9818,-94.9186,1013.92,11111222 
TABS,ioos:station:wmo:42043:1,2014-09-01T07:00:00Z,28.9818,-94.9186,1013.64,11111222 
TABS,ioos:station:wmo:42043:1,2014-09-01T07:30:00Z,28.9818,-94.9186,1013.66,11111222 
TABS,ioos:station:wmo:42043:1,2014-09-01T08:00:00Z,28.9818,-94.9186,1013.65,11111222 
TABS,ioos:station:wmo:42043:1,2014-09-01T08:30:00Z,28.9818,-94.9186,1013.27,11111222 
TABS,ioos:station:wmo:42043:1,2014-09-01T09:00:00Z,28.9818,-94.9186,1013.21,11111222 
TABS,ioos:station:wmo:42043:1,2014-09-01T09:30:00Z,28.9818,-94.9186,1013.19,11111222 
TABS,ioos:station:wmo:42043:1,2014-09-01T10:00:00Z,28.9818,-94.9186,1013.42,11111222 
TABS,ioos:station:wmo:42043:1,2014-09-01T10:30:00Z,28.9818,-94.9186,1013.44,11111222 
TABS,ioos:station:wmo:42043:1,2014-09-01T11:00:00Z,28.9818,-94.9186,1013.52,11111222 
TABS,ioos:station:wmo:42043:1,2014-09-01T11:30:00Z,28.9818,-94.9186,1013.79,11111222 
TABS,ioos:station:wmo:42043:1,2014-09-01T12:00:00Z,28.9818,-94.9186,1013.84,11111222 
TABS,ioos:station:wmo:42043:1,2014-09-01T12:30:00Z,28.9818,-94.9186,1013.96,11111222 
TABS,ioos:station:wmo:42043:1,2014-09-01T13:00:00Z,28.9818,-94.9186,1014.11,11111222 
TABS,ioos:station:wmo:42043:1,2014-09-01T13:30:00Z,28.9818,-94.9186,1014.2,11111222 
TABS,ioos:station:wmo:42043:1,2014-09-01T14:00:00Z,28.9818,-94.9186,1014.41,11111222 
TABS,ioos:station:wmo:42043:1,2014-09-01T14:30:00Z,28.9818,-94.9186,1014.44,11111222 
TABS,ioos:station:wmo:42043:1,2014-09-01T15:00:00Z,28.9818,-94.9186,1014.64,11111222 
TABS,ioos:station:wmo:42043:1,2014-09-01T15:30:00Z,28.9818,-94.9186,1014.89,11111222 
TABS,ioos:station:wmo:42043:1,2014-09-01T16:00:00Z,28.9818,-94.9186,1015.02,11111222 
TABS,ioos:station:wmo:42043:1,2014-09-01T16:30:00Z,28.9818,-94.9186,1014.9,11111222 
TABS,ioos:station:wmo:42043:1,2014-09-01T17:00:00Z,28.9818,-94.9186,1015.0,11111222 
TABS,ioos:station:wmo:42043:1,2014-09-01T17:30:00Z,28.9818,-94.9186,1014.86,11111222 
TABS,ioos:station:wmo:42043:1,2014-09-01T18:00:00Z,28.9818,-94.9186,1014.63,11111222 
TABS,ioos:station:wmo:42043:1,2014-09-01T18:30:00Z,28.9818,-94.9186,1014.23,11111222 
TABS,ioos:station:wmo:42043:1,2014-09-01T19:00:00Z,28.9818,-94.9186,1014.16,11111222 
TABS,ioos:station:wmo:42043:1,2014-09-01T19:30:00Z,28.9818,-94.9186,1013.89,11111222 
TABS,ioos:station:wmo:42043:1,2014-09-01T20:00:00Z,28.9818,-94.9186,1013.65,11111222 
TABS,ioos:station:wmo:42043:1,2014-09-01T20:30:00Z,28.9818,-94.9186,1013.3,11111222 
TABS,ioos:station:wmo:42043:1,2014-09-01T21:00:00Z,28.9818,-94.9186,1013.14,11111222 
TABS,ioos:station:wmo:42043:1,2014-09-01T21:30:00Z,28.9818,-94.9186,1012.93,11111222 
TABS,ioos:station:wmo:42043:1,2014-09-01T22:00:00Z,28.9818,-94.9186,1012.88,11111222 
TABS,ioos:station:wmo:42043:1,2014-09-01T22:30:00Z,28.9818,-94.9186,1012.94,11111222 
TABS,ioos:station:wmo:42043:1,2014-09-01T23:00:00Z,28.9818,-94.9186,1012.7,11111222 
TABS,ioos:station:wmo:42043:1,2014-09-01T23:30:00Z,28.9818,-94.9186,1012.67,11111222 
TABS,ioos:station:wmo:42043:1,2014-09-02T00:00:00Z,28.9818,-94.9186,1012.97,11111222 
TABS,ioos:station:wmo:42043:1,2014-09-02T00:30:00Z,28.9818,-94.9186,1013.11,11111222 
TABS,ioos:station:wmo:42043:1,2014-09-02T01:00:00Z,28.9818,-94.9186,1013.2,11111222 
TABS,ioos:station:wmo:42043:1,2014-09-02T01:30:00Z,28.9818,-94.9186,1013.48,11111222 
TABS,ioos:station:wmo:42043:1,2014-09-02T02:00:00Z,28.9818,-94.9186,1013.86,11111222 
TABS,ioos:station:wmo:42043:1,2014-09-02T02:30:00Z,28.9818,-94.9186,1014.13,11111222 
TABS,ioos:station:wmo:42043:1,2014-09-02T03:00:00Z,28.9818,-94.9186,1014.38,11111222 
TABS,ioos:station:wmo:42043:1,2014-09-02T03:30:00Z,28.9818,-94.9186,1014.48,11111222 
TABS,ioos:station:wmo:42043:1,2014-09-02T04:00:00Z,28.9818,-94.9186,1014.31,11111222 
TABS,ioos:station:wmo:42043:1,2014-09-02T04:30:00Z,28.9818,-94.9186,1014.12,11111222 
TABS,ioos:station:wmo:42043:1,2014-09-02T05:00:00Z,28.9818,-94.9186,1013.77,11111222 
TABS,ioos:station:wmo:42043:1,2014-09-02T05:30:00Z,28.9818,-94.9186,1013.63,11111222 
TABS,ioos:station:wmo:42043:1,2014-09-02T06:00:00Z,28.9818,-94.9186,1013.15,11111222 
TABS,ioos:station:wmo:42043:1,2014-09-02T06:30:00Z,28.9818,-94.9186,1013.12,11111222 
TABS,ioos:station:wmo:42043:1,2014-09-02T07:00:00Z,28.9818,-94.9186,1012.93,11111222 
TABS,ioos:station:wmo:42043:1,2014-09-02T07:30:00Z,28.9818,-94.9186,1012.92,11111222 
TABS,ioos:station:wmo:42043:1,2014-09-02T08:00:00Z,28.9818,-94.9186,1013.19,11111222 
TABS,ioos:station:wmo:42043:1,2014-09-02T08:30:00Z,28.9818,-94.9186,1012.98,11111222 
TABS,ioos:station:wmo:42043:1,2014-09-02T09:00:00Z,28.9818,-94.9186,1013.09,11111222 
TABS,ioos:station:wmo:42043:1,2014-09-02T09:30:00Z,28.9818,-94.9186,1013.3,11111222 
TABS,ioos:station:wmo:42043:1,2014-09-02T10:00:00Z,28.9818,-94.9186,1013.36,11111222 
TABS,ioos:station:wmo:42043:1,2014-09-02T10:30:00Z,28.9818,-94.9186,1013.34,11111222 
TABS,ioos:station:wmo:42043:1,2014-09-02T11:00:00Z,28.9818,-94.9186,1013.17,11111222 
TABS,ioos:station:wmo:42043:1,2014-09-02T11:30:00Z,28.9818,-94.9186,1013.75,11111222 
TABS,ioos:station:wmo:42043:1,2014-09-02T12:00:00Z,28.9818,-94.9186,1014.04,11111222 
TABS,ioos:station:wmo:42043:1,2014-09-02T12:30:00Z,28.9818,-94.9186,1014.31,11111222 
TABS,ioos:station:wmo:42043:1,2014-09-02T13:00:00Z,28.9818,-94.9186,1014.84,11111222 
TABS,ioos:station:wmo:42043:1,2014-09-02T13:30:00Z,28.9818,-94.9186,1014.8,11111222 
TABS,ioos:station:wmo:42043:1,2014-09-02T14:00:00Z,28.9818,-94.9186,1015.2,11111222 
TABS,ioos:station:wmo:42043:1,2014-09-02T14:30:00Z,28.9818,-94.9186,1015.12,11111222 
TABS,ioos:station:wmo:42043:1,2014-09-02T15:00:00Z,28.9818,-94.9186,1015.64,11111222 
TABS,ioos:station:wmo:42043:1,2014-09-02T15:30:00Z,28.9818,-94.9186,1015.41,11111222 
TABS,ioos:station:wmo:42043:1,2014-09-02T16:00:00Z,28.9818,-94.9186,1015.57,11111222 
TABS,ioos:station:wmo:42043:1,2014-09-02T16:30:00Z,28.9818,-94.9186,1015.49,11111222 
TABS,ioos:station:wmo:42043:1,2014-09-02T17:00:00Z,28.9818,-94.9186,1015.58,11111222 
TABS,ioos:station:wmo:42043:1,2014-09-02T17:30:00Z,28.9818,-94.9186,1015.31,11111222 
TABS,ioos:station:wmo:42043:1,2014-09-02T18:00:00Z,28.9818,-94.9186,1015.28,11111222 
TABS,ioos:station:wmo:42043:1,2014-09-02T18:30:00Z,28.9818,-94.9186,1015.23,11111222 
TABS,ioos:station:wmo:42043:1,2014-09-02T19:00:00Z,28.9818,-94.9186,1015.01,11111222 
TABS,ioos:station:wmo:42043:1,2014-09-02T19:30:00Z,28.9818,-94.9186,1014.62,11111222 
TABS,ioos:station:wmo:42043:1,2014-09-02T20:00:00Z,28.9818,-94.9186,1014.38,11111222 
TABS,ioos:station:wmo:42043:1,2014-09-02T20:30:00Z,28.9818,-94.9186,1014.19,11111222 
TABS,ioos:station:wmo:42043:1,2014-09-02T21:00:00Z,28.9818,-94.9186,1013.96,11111222 
TABS,ioos:station:wmo:42043:1,2014-09-02T21:30:00Z,28.9818,-94.9186,1013.83,11111222 
TABS,ioos:station:wmo:42043:1,2014-09-02T22:00:00Z,28.9818,-94.9186,1013.96,11111222 
TABS,ioos:station:wmo:42043:1,2014-09-02T22:30:00Z,28.9818,-94.9186,1014.03,11111222 
TABS,ioos:station:wmo:42043:1,2014-09-02T23:00:00Z,28.9818,-94.9186,1014.03,11111222 
TABS,ioos:station:wmo:42043:1,2014-09-02T23:30:00Z,28.9818,-94.9186,1014.13,11111222 
TABS,ioos:station:wmo:42043:1,2014-09-03T00:00:00Z,28.9818,-94.9186,1014.44,11111222 
TABS,ioos:station:wmo:42043:1,2014-09-03T00:30:00Z,28.9818,-94.9186,1014.5,11111222 
TABS,ioos:station:wmo:42043:1,2014-09-03T01:00:00Z,28.9818,-94.9186,1014.87,11111222 
TABS,ioos:station:wmo:42043:1,2014-09-03T01:30:00Z,28.9818,-94.9186,1015.0,11111222 
TABS,ioos:station:wmo:42043:1,2014-09-03T02:00:00Z,28.9818,-94.9186,1015.14,11111222 
TABS,ioos:station:wmo:42043:1,2014-09-03T02:30:00Z,28.9818,-94.9186,1014.95,11111222 
TABS,ioos:station:wmo:42043:1,2014-09-03T03:00:00Z,28.9818,-94.9186,1014.46,11111222 
TABS,ioos:station:wmo:42043:1,2014-09-03T03:30:00Z,28.9818,-94.9186,1014.3,11111222 
TABS,ioos:station:wmo:42043:1,2014-09-03T04:00:00Z,28.9818,-94.9186,1014.45,11111222 
TABS,ioos:station:wmo:42043:1,2014-09-03T04:30:00Z,28.9818,-94.9186,1014.17,11111222 
TABS,ioos:station:wmo:42043:1,2014-09-03T05:00:00Z,28.9818,-94.9186,1014.25,11111222 
TABS,ioos:station:wmo:42043:1,2014-09-03T05:30:00Z,28.9818,-94.9186,1014.18,11111222 
TABS,ioos:station:wmo:42043:1,2014-09-03T06:00:00Z,28.9818,-94.9186,1013.76,11111222 
TABS,ioos:station:wmo:42043:1,2014-09-03T06:30:00Z,28.9818,-94.9186,1013.76,11111222 
TABS,ioos:station:wmo:42043:1,2014-09-03T07:00:00Z,28.9818,-94.9186,1013.73,11111222 
TABS,ioos:station:wmo:42043:1,2014-09-03T07:30:00Z,28.9818,-94.9186,1013.59,11111222 
TABS,ioos:station:wmo:42043:1,2014-09-03T08:00:00Z,28.9818,-94.9186,1013.51,11111222 
TABS,ioos:station:wmo:42043:1,2014-09-03T08:30:00Z,28.9818,-94.9186,1013.84,11111222 
TABS,ioos:station:wmo:42043:1,2014-09-03T09:00:00Z,28.9818,-94.9186,1013.81,11111222 
TABS,ioos:station:wmo:42043:1,2014-09-03T09:30:00Z,28.9818,-94.9186,1013.7,11111222 
TABS,ioos:station:wmo:42043:1,2014-09-03T10:00:00Z,28.9818,-94.9186,1013.8,11111222 
TABS,ioos:station:wmo:42043:1,2014-09-03T10:30:00Z,28.9818,-94.9186,1013.82,11111222 
TABS,ioos:station:wmo:42043:1,2014-09-03T11:00:00Z,28.9818,-94.9186,1013.76,11111222 
TABS,ioos:station:wmo:42043:1,2014-09-03T11:30:00Z,28.9818,-94.9186,1013.8,11111222 
TABS,ioos:station:wmo:42043:1,2014-09-03T12:00:00Z,28.9818,-94.9186,1014.17,11111222 
TABS,ioos:station:wmo:42043:1,2014-09-03T12:30:00Z,28.9818,-94.9186,1014.43,11111222 
TABS,ioos:station:wmo:42043:1,2014-09-03T13:00:00Z,28.9818,-94.9186,1014.64,11111222 
TABS,ioos:station:wmo:42043:1,2014-09-03T13:30:00Z,28.9818,-94.9186,1014.87,11111222 
TABS,ioos:station:wmo:42043:1,2014-09-03T14:00:00Z,28.9818,-94.9186,1015.53,11111222 
TABS,ioos:station:wmo:42043:1,2014-09-03T14:30:00Z,28.9818,-94.9186,1015.95,11111222 
TABS,ioos:station:wmo:42043:1,2014-09-03T15:00:00Z,28.9818,-94.9186,1016.07,11111222 
TABS,ioos:station:wmo:42043:1,2014-09-03T15:30:00Z,28.9818,-94.9186,1016.36,11111222 
TABS,ioos:station:wmo:42043:1,2014-09-03T16:00:00Z,28.9818,-94.9186,1016.6,11111222 
TABS,ioos:station:wmo:42043:1,2014-09-03T16:30:00Z,28.9818,-94.9186,1016.88,11111222 
TABS,ioos:station:wmo:42043:1,2014-09-03T17:00:00Z,28.9818,-94.9186,1017.03,11111222 
TABS,ioos:station:wmo:42043:1,2014-09-03T17:30:00Z,28.9818,-94.9186,1016.7,11111222 
TABS,ioos:station:wmo:42043:1,2014-09-03T18:00:00Z,28.9818,-94.9186,1016.5,11111222 
TABS,ioos:station:wmo:42043:1,2014-09-03T18:30:00Z,28.9818,-94.9186,1016.16,11111222 
TABS,ioos:station:wmo:42043:1,2014-09-03T19:00:00Z,28.9818,-94.9186,1015.83,11111222 
TABS,ioos:station:wmo:42043:1,2014-09-03T19:30:00Z,28.9818,-94.9186,1015.84,11111222 
TABS,ioos:station:wmo:42043:1,2014-09-03T20:00:00Z,28.9818,-94.9186,1015.37,11111222 
TABS,ioos:station:wmo:42043:1,2014-09-03T20:30:00Z,28.9818,-94.9186,1014.76,11111222 
TABS,ioos:station:wmo:42043:1,2014-09-03T21:00:00Z,28.9818,-94.9186,1014.4,11111222 
TABS,ioos:station:wmo:42043:1,2014-09-03T21:30:00Z,28.9818,-94.9186,1014.31,11111222 
TABS,ioos:station:wmo:42043:1,2014-09-03T22:00:00Z,28.9818,-94.9186,1014.38,11111222 
TABS,ioos:station:wmo:42043:1,2014-09-03T22:30:00Z,28.9818,-94.9186,1014.45,11111222 
TABS,ioos:station:wmo:42043:1,2014-09-03T23:00:00Z,28.9818,-94.9186,1014.5,11111222 
TABS,ioos:station:wmo:42043:1,2014-09-03T23:30:00Z,28.9818,-94.9186,1014.39,11111222 
TABS,ioos:station:wmo:42043:1,2014-09-04T00:00:00Z,28.9818,-94.9186,1014.5,11111222 
TABS,ioos:station:wmo:42043:1,2014-09-04T00:30:00Z,28.9818,-94.9186,1014.46,11111222 
TABS,ioos:station:wmo:42043:1,2014-09-04T01:00:00Z,28.9818,-94.9186,1014.57,11111222 
TABS,ioos:station:wmo:42043:1,2014-09-04T01:30:00Z,28.9818,-94.9186,1015.14,11111222 
TABS,ioos:station:wmo:42043:1,2014-09-04T02:00:00Z,28.9818,-94.9186,1015.29,11111222 
TABS,ioos:station:wmo:42043:1,2014-09-04T02:30:00Z,28.9818,-94.9186,1015.37,11111222 
TABS,ioos:station:wmo:42043:1,2014-09-04T03:00:00Z,28.9818,-94.9186,1015.55,11111222 
TABS,ioos:station:wmo:42043:1,2014-09-04T03:30:00Z,28.9818,-94.9186,1015.64,11111222 
TABS,ioos:station:wmo:42043:1,2014-09-04T04:00:00Z,28.9818,-94.9186,1015.58,11111222 
TABS,ioos:station:wmo:42043:1,2014-09-04T04:30:00Z,28.9818,-94.9186,1015.53,11111222 
TABS,ioos:station:wmo:42043:1,2014-09-04T05:00:00Z,28.9818,-94.9186,1015.26,11111222 
TABS,ioos:station:wmo:42043:1,2014-09-04T05:30:00Z,28.9818,-94.9186,1015.09,11111222 
TABS,ioos:station:wmo:42043:1,2014-09-04T06:00:00Z,28.9818,-94.9186,1015.06,11111222 
TABS,ioos:station:wmo:42043:1,2014-09-04T06:30:00Z,28.9818,-94.9186,1014.96,11111222 
TABS,ioos:station:wmo:42043:1,2014-09-04T07:00:00Z,28.9818,-94.9186,1014.92,11111222 
TABS,ioos:station:wmo:42043:1,2014-09-04T07:30:00Z,28.9818,-94.9186,1014.8,11111222 
TABS,ioos:station:wmo:42043:1,2014-09-04T08:00:00Z,28.9818,-94.9186,1014.9,11111222 
TABS,ioos:station:wmo:42043:1,2014-09-04T08:30:00Z,28.9818,-94.9186,1014.93,11111222 
TABS,ioos:station:wmo:42043:1,2014-09-04T09:00:00Z,28.9818,-94.9186,1014.89,11111222 
TABS,ioos:station:wmo:42043:1,2014-09-04T09:30:00Z,28.9818,-94.9186,1014.67,11111222 
TABS,ioos:station:wmo:42043:1,2014-09-04T10:00:00Z,28.9818,-94.9186,1014.6,11111222 
TABS,ioos:station:wmo:42043:1,2014-09-04T10:30:00Z,28.9818,-94.9186,1014.54,11111222 
TABS,ioos:station:wmo:42043:1,2014-09-04T11:00:00Z,28.9818,-94.9186,1014.81,11111222 
TABS,ioos:station:wmo:42043:1,2014-09-04T11:30:00Z,28.9818,-94.9186,1014.95,11111222 
TABS,ioos:station:wmo:42043:1,2014-09-04T12:00:00Z,28.9818,-94.9186,1015.16,11111222 
TABS,ioos:station:wmo:42043:1,2014-09-04T12:30:00Z,28.9818,-94.9186,1015.59,11111222 
TABS,ioos:station:wmo:42043:1,2014-09-04T13:00:00Z,28.9818,-94.9186,1015.84,11111222 
TABS,ioos:station:wmo:42043:1,2014-09-04T13:30:00Z,28.9818,-94.9186,1016.11,11111222 
TABS,ioos:station:wmo:42043:1,2014-09-04T14:00:00Z,28.9818,-94.9186,1016.51,11111222 
TABS,ioos:station:wmo:42043:1,2014-09-04T14:30:00Z,28.9818,-94.9186,1016.78,11111222 
TABS,ioos:station:wmo:42043:1,2014-09-04T15:00:00Z,28.9818,-94.9186,1017.1,11111222 
TABS,ioos:station:wmo:42043:1,2014-09-04T15:30:00Z,28.9818,-94.9186,1017.35,11111222 
TABS,ioos:station:wmo:42043:1,2014-09-04T16:00:00Z,28.9818,-94.9186,1017.43,11111222 
TABS,ioos:station:wmo:42043:1,2014-09-04T16:30:00Z,28.9818,-94.9186,1017.68,11111222 
TABS,ioos:station:wmo:42043:1,2014-09-04T17:00:00Z,28.9818,-94.9186,1017.57,11111222 
TABS,ioos:station:wmo:42043:1,2014-09-04T17:30:00Z,28.9818,-94.9186,1017.44,11111222 
TABS,ioos:station:wmo:42043:1,2014-09-04T18:00:00Z,28.9818,-94.9186,1017.06,11111222 
TABS,ioos:station:wmo:42043:1,2014-09-04T18:30:00Z,28.9818,-94.9186,1017.01,11111222 
TABS,ioos:station:wmo:42043:1,2014-09-04T19:00:00Z,28.9818,-94.9186,1016.53,11111222 
TABS,ioos:station:wmo:42043:1,2014-09-04T19:30:00Z,28.9818,-94.9186,1016.26,11111222 
TABS,ioos:station:wmo:42043:1,2014-09-04T20:00:00Z,28.9818,-94.9186,1016.05,11111222 
TABS,ioos:station:wmo:42043:1,2014-09-04T20:30:00Z,28.9818,-94.9186,1015.71,11111222 
TABS,ioos:station:wmo:42043:1,2014-09-04T21:00:00Z,28.9818,-94.9186,1015.57,11111222 
TABS,ioos:station:wmo:42043:1,2014-09-04T21:30:00Z,28.9818,-94.9186,1015.77,11111222 
TABS,ioos:station:wmo:42043:1,2014-09-04T22:00:00Z,28.9818,-94.9186,1015.61,11111222 
TABS,ioos:station:wmo:42043:1,2014-09-04T22:30:00Z,28.9818,-94.9186,1015.51,11111222 
TABS,ioos:station:wmo:42043:1,2014-09-04T23:00:00Z,28.9818,-94.9186,1015.63,11111222 
TABS,ioos:station:wmo:42043:1,2014-09-04T23:30:00Z,28.9818,-94.9186,1015.51,11111222 
TABS,ioos:station:wmo:42043:1,2014-09-05T00:00:00Z,28.9818,-94.9186,1015.26,11111222 
TABS,ioos:station:wmo:42043:1,2014-09-05T00:30:00Z,28.9818,-94.9186,1015.27,11111222 
TABS,ioos:station:wmo:42043:1,2014-09-05T01:00:00Z,28.9818,-94.9186,1015.5,11111222 
TABS,ioos:station:wmo:42043:1,2014-09-05T01:30:00Z,28.9818,-94.9186,1015.8,11111222 
TABS,ioos:station:wmo:42043:1,2014-09-05T02:00:00Z,28.9818,-94.9186,1016.06,11111222 
TABS,ioos:station:wmo:42043:1,2014-09-05T02:30:00Z,28.9818,-94.9186,1016.39,11111222 
TABS,ioos:station:wmo:42043:1,2014-09-05T03:00:00Z,28.9818,-94.9186,1016.53,11111222 
TABS,ioos:station:wmo:42043:1,2014-09-05T03:30:00Z,28.9818,-94.9186,1016.69,11111222 
TABS,ioos:station:wmo:42043:1,2014-09-05T04:00:00Z,28.9818,-94.9186,1016.96,11111222 
TABS,ioos:station:wmo:42043:1,2014-09-05T04:30:00Z,28.9818,-94.9186,1016.87,11111222 
TABS,ioos:station:wmo:42043:1,2014-09-05T05:00:00Z,28.9818,-94.9186,1016.71,11111222 
TABS,ioos:station:wmo:42043:1,2014-09-05T05:30:00Z,28.9818,-94.9186,1016.63,11111222 
TABS,ioos:station:wmo:42043:1,2014-09-05T06:00:00Z,28.9818,-94.9186,1016.43,11111222 
TABS,ioos:station:wmo:42043:1,2014-09-05T06:30:00Z,28.9818,-94.9186,1016.44,11111222 
TABS,ioos:station:wmo:42043:1,2014-09-05T07:00:00Z,28.9818,-94.9186,1016.17,11111222 
TABS,ioos:station:wmo:42043:1,2014-09-05T07:30:00Z,28.9818,-94.9186,1016.21,11111222 
TABS,ioos:station:wmo:42043:1,2014-09-05T08:00:00Z,28.9818,-94.9186,1016.15,11111222 
TABS,ioos:station:wmo:42043:1,2014-09-05T08:30:00Z,28.9818,-94.9186,1016.14,11111222 
TABS,ioos:station:wmo:42043:1,2014-09-05T09:00:00Z,28.9818,-94.9186,1016.21,11111222 
TABS,ioos:station:wmo:42043:1,2014-09-05T09:30:00Z,28.9818,-94.9186,1016.39,11111222 
TABS,ioos:station:wmo:42043:1,2014-09-05T10:00:00Z,28.9818,-94.9186,1016.45,11111222 
TABS,ioos:station:wmo:42043:1,2014-09-05T10:30:00Z,28.9818,-94.9186,1016.58,11111222 
TABS,ioos:station:wmo:42043:1,2014-09-05T11:00:00Z,28.9818,-94.9186,1016.55,11111222 
TABS,ioos:station:wmo:42043:1,2014-09-05T11:30:00Z,28.9818,-94.9186,1017.06,11111222 
TABS,ioos:station:wmo:42043:1,2014-09-05T12:00:00Z,28.9818,-94.9186,1017.22,11111222 
TABS,ioos:station:wmo:42043:1,2014-09-05T12:30:00Z,28.9818,-94.9186,1017.63,11111222 
TABS,ioos:station:wmo:42043:1,2014-09-05T13:00:00Z,28.9818,-94.9186,1017.71,11111222 
TABS,ioos:station:wmo:42043:1,2014-09-05T13:30:00Z,28.9818,-94.9186,1017.94,11111222 
TABS,ioos:station:wmo:42043:1,2014-09-05T14:00:00Z,28.9818,-94.9186,1018.08,11111222 
TABS,ioos:station:wmo:42043:1,2014-09-05T14:30:00Z,28.9818,-94.9186,1018.19,11111222 
TABS,ioos:station:wmo:42043:1,2014-09-05T15:00:00Z,28.9818,-94.9186,1018.34,11111222 
TABS,ioos:station:wmo:42043:1,2014-09-05T15:30:00Z,28.9818,-94.9186,1018.45,11111222 
TABS,ioos:station:wmo:42043:1,2014-09-05T16:00:00Z,28.9818,-94.9186,1018.6,11111222 
TABS,ioos:station:wmo:42043:1,2014-09-05T16:30:00Z,28.9818,-94.9186,1018.56,11111222 
TABS,ioos:station:wmo:42043:1,2014-09-05T17:00:00Z,28.9818,-94.9186,1018.2,11111222 
TABS,ioos:station:wmo:42043:1,2014-09-05T17:30:00Z,28.9818,-94.9186,1018.17,11111222 
TABS,ioos:station:wmo:42043:1,2014-09-05T18:00:00Z,28.9818,-94.9186,1017.91,11111222 
TABS,ioos:station:wmo:42043:1,2014-09-05T18:30:00Z,28.9818,-94.9186,1017.81,11111222 
TABS,ioos:station:wmo:42043:1,2014-09-05T19:00:00Z,28.9818,-94.9186,1017.61,11111222 
TABS,ioos:station:wmo:42043:1,2014-09-05T19:30:00Z,28.9818,-94.9186,1017.19,11111222 
TABS,ioos:station:wmo:42043:1,2014-09-05T20:00:00Z,28.9818,-94.9186,1016.81,11111222 
TABS,ioos:station:wmo:42043:1,2014-09-05T20:30:00Z,28.9818,-94.9186,1016.21,11111222 
TABS,ioos:station:wmo:42043:1,2014-09-05T21:00:00Z,28.9818,-94.9186,1015.9,11111222 
TABS,ioos:station:wmo:42043:1,2014-09-05T21:30:00Z,28.9818,-94.9186,1015.89,11111222 
TABS,ioos:station:wmo:42043:1,2014-09-05T22:00:00Z,28.9818,-94.9186,1016.02,11111222 
TABS,ioos:station:wmo:42043:1,2014-09-05T22:30:00Z,28.9818,-94.9186,1015.9,11111222 
TABS,ioos:station:wmo:42043:1,2014-09-05T23:00:00Z,28.9818,-94.9186,1015.53,11111222 
TABS,ioos:station:wmo:42043:1,2014-09-05T23:30:00Z,28.9818,-94.9186,1015.91,11111222 
TABS,ioos:station:wmo:42043:1,2014-09-06T00:00:00Z,28.9818,-94.9186,1015.51,11111222 
TABS,ioos:station:wmo:42043:1,2014-09-06T00:30:00Z,28.9818,-94.9186,1015.73,11111222 
TABS,ioos:station:wmo:42043:1,2014-09-06T01:00:00Z,28.9818,-94.9186,1016.05,11111222 
TABS,ioos:station:wmo:42043:1,2014-09-06T01:30:00Z,28.9818,-94.9186,1016.32,11111222 
TABS,ioos:station:wmo:42043:1,2014-09-06T02:00:00Z,28.9818,-94.9186,1016.57,11111222 
TABS,ioos:station:wmo:42043:1,2014-09-06T02:30:00Z,28.9818,-94.9186,1016.83,11111222 
TABS,ioos:station:wmo:42043:1,2014-09-06T03:00:00Z,28.9818,-94.9186,1016.9,11111222 
TABS,ioos:station:wmo:42043:1,2014-09-06T03:30:00Z,28.9818,-94.9186,1016.51,11111222 
TABS,ioos:station:wmo:42043:1,2014-09-06T04:00:00Z,28.9818,-94.9186,1016.6,11111222 
TABS,ioos:station:wmo:42043:1,2014-09-06T04:30:00Z,28.9818,-94.9186,1016.52,11111222 
TABS,ioos:station:wmo:42043:1,2014-09-06T05:00:00Z,28.9818,-94.9186,1016.51,11111222 
TABS,ioos:station:wmo:42043:1,2014-09-06T05:30:00Z,28.9818,-94.9186,1016.32,11111222 
TABS,ioos:station:wmo:42043:1,2014-09-06T06:00:00Z,28.9818,-94.9186,1016.28,11111222 
TABS,ioos:station:wmo:42043:1,2014-09-06T06:30:00Z,28.9818,-94.9186,1016.41,11111222 
TABS,ioos:station:wmo:42043:1,2014-09-06T07:00:00Z,28.9818,-94.9186,1016.27,11111222 
TABS,ioos:station:wmo:42043:1,2014-09-06T07:30:00Z,28.9818,-94.9186,1016.39,11111222 
TABS,ioos:station:wmo:42043:1,2014-09-06T08:00:00Z,28.9818,-94.9186,1016.09,11111222 
TABS,ioos:station:wmo:42043:1,2014-09-06T08:30:00Z,28.9818,-94.9186,1016.34,11111222 
TABS,ioos:station:wmo:42043:1,2014-09-06T09:00:00Z,28.9818,-94.9186,1016.1,11111222 
TABS,ioos:station:wmo:42043:1,2014-09-06T09:30:00Z,28.9818,-94.9186,1016.31,11111222 
TABS,ioos:station:wmo:42043:1,2014-09-06T10:00:00Z,28.9818,-94.9186,1016.5,11111222 
TABS,ioos:station:wmo:42043:1,2014-09-06T10:30:00Z,28.9818,-94.9186,1016.66,11111222 
TABS,ioos:station:wmo:42043:1,2014-09-06T11:00:00Z,28.9818,-94.9186,1016.84,11111222 
TABS,ioos:station:wmo:42043:1,2014-09-06T11:30:00Z,28.9818,-94.9186,1016.9,11111222 
TABS,ioos:station:wmo:42043:1,2014-09-06T12:00:00Z,28.9818,-94.9186,1017.47,11111222 
TABS,ioos:station:wmo:42043:1,2014-09-06T12:30:00Z,28.9818,-94.9186,1017.61,11111222 
TABS,ioos:station:wmo:42043:1,2014-09-06T13:00:00Z,28.9818,-94.9186,1017.72,11111222 
TABS,ioos:station:wmo:42043:1,2014-09-06T13:30:00Z,28.9818,-94.9186,1017.84,11111222 
TABS,ioos:station:wmo:42043:1,2014-09-06T14:00:00Z,28.9818,-94.9186,1017.51,11111222 
TABS,ioos:station:wmo:42043:1,2014-09-06T14:30:00Z,28.9818,-94.9186,1017.68,11111222 
TABS,ioos:station:wmo:42043:1,2014-09-06T15:00:00Z,28.9818,-94.9186,1017.91,11111222 
TABS,ioos:station:wmo:42043:1,2014-09-06T15:30:00Z,28.9818,-94.9186,1017.89,11111222 
TABS,ioos:station:wmo:42043:1,2014-09-06T16:00:00Z,28.9818,-94.9186,1018.08,11111222 
TABS,ioos:station:wmo:42043:1,2014-09-06T16:30:00Z,28.9818,-94.9186,1017.86,11111222 
TABS,ioos:station:wmo:42043:1,2014-09-06T17:00:00Z,28.9818,-94.9186,1017.74,11111222 
TABS,ioos:station:wmo:42043:1,2014-09-06T17:30:00Z,28.9818,-94.9186,1017.5,11111222 
TABS,ioos:station:wmo:42043:1,2014-09-06T18:00:00Z,28.9818,-94.9186,1017.25,11111222 
TABS,ioos:station:wmo:42043:1,2014-09-06T18:30:00Z,28.9818,-94.9186,1016.96,11111222 